This demonstration page uses our WeatherBlox Daily Observations layout. Learn more.

Left ArrowRight Arrow

Hourly Observations for October 18, 2021

Temp ( °F °C ) Dew Point ( °F °C ) Humidity (%) Winds ( mph kmh ) Pressure ( in mb ) Visibility ( mi km ) Precip ( " mm )
12:56 am 00:56 Clear 48 8.9 39 3.9 71 71 S 6 9 29.98 1015 10 16 0.00 0.00
1:56 am 01:56 Clear 49 9.4 39 3.9 69 69 S 6 9 29.97 1015 10 16 0.00 0.00
2:56 am 02:56 Clear 48 8.9 39 3.9 71 71 S 8 13 29.96 1015 10 16 0.00 0.00
3:56 am 03:56 Clear 49 9.4 38 3.3 66 66 SSW 12 19 29.94 1014 10 16 0.00 0.00
4:56 am 04:56 Clear 48 8.9 37 2.8 66 66 SSW 9 15 29.93 1014 10 16 0.00 0.00
5:56 am 05:56 Clear 43 6.1 36 2.2 76 76 S 6 9 29.94 1014 10 16 0.00 0.00
6:56 am 06:56 Clear 42 5.6 35 1.7 76 76 S 8 13 29.94 1014 10 16 0.00 0.00
7:56 am 07:56 Sunny 42 5.6 35 1.7 76 76 S 7 11 29.95 1014 10 16 0.00 0.00
8:56 am 08:56 Sunny 45 7.2 38 3.3 77 77 SSE 6 9 29.95 1014 10 16 0.00 0.00
9:56 am 09:56 Sunny 54 12.2 38 3.3 55 55 SSE 10 17 29.93 1014 10 16 0.00 0.00
10:56 am 10:56 Sunny 61 16.1 38 3.3 43 43 S 15 24 29.92 1013 10 16 0.00 0.00
11:56 am 11:56 Sunny 65 18.3 39 3.9 39 39 S 17 28 29.89 1012 10 16 0.00 0.00
12:56 pm 12:56 Sunny 69 20.6 40 4.4 35 35 SSE 22 35 29.85 1011 10 16 0.00 0.00
1:56 pm 13:56 Sunny 69 20.6 40 4.4 35 35 S 20 31 29.83 1010 10 16 0.00 0.00
2:56 pm 14:56 Sunny 72 22.2 41 5 33 33 S 26 43 29.80 1009 10 16 0.00 0.00
3:56 pm 15:56 Sunny 73 22.8 41 5 32 32 S 31 50 29.78 1008 10 16 0.00 0.00
4:56 pm 16:56 Sunny 71 21.7 41 5 34 34 S 23 37 29.78 1009 10 16 0.00 0.00
5:56 pm 17:56 Sunny 70 21.1 42 5.6 37 37 S 21 33 29.79 1009 10 16 0.00 0.00
6:56 pm 18:56 Clear 65 18.3 42 5.6 43 43 SSE 15 24 29.80 1009 10 16 0.00 0.00
7:56 pm 19:56 Clear 61 16.1 42 5.6 50 50 SSE 12 19 29.82 1010 10 16 0.00 0.00
8:56 pm 20:56 Clear 59 15 43 6.1 56 56 SSE 14 22 29.83 1010 10 16 0.00 0.00
9:56 pm 21:56 Clear 58 14.4 43 6.1 58 58 SSE 14 22 29.82 1010 10 16 0.00 0.00
10:56 pm 22:56 Clear 57 13.9 43 6.1 60 60 SSE 15 24 29.82 1010 10 16 0.00 0.00
11:56 pm 23:56 Clear 54 12.2 43 6.1 67 67 SSE 10 17 29.81 1010 10 16 0.00 0.00

Powered by AerisWeather